• In Belgium
  • List of Countries
  • For 7 days
  • Water Temperature
  • Satellite Maps
  • Weather Map
  • Weather Widgets
  • user-avatar
    Login

    Hourly Weather Domashka

    Today, 24 October, Wednesday

    Time Temperature Precipitation Wind Pressure Humidity
    00:00 +9°C° 0 mm 5 mps 751 mmHg 65%
    01:00 +10°C° 0 mm 4 mps 750 mmHg 68%
    02:00 +10°C° 0 mm 4 mps 750 mmHg 70%
    03:00 +10°C° 0 mm 4 mps 750 mmHg 73%
    04:00 +8°C° 0 mm 4 mps 750 mmHg 78%
    05:00 +8°C° 0 mm 4 mps 750 mmHg 82%
    06:00 +7°C° 0 mm 4 mps 750 mmHg 86%
    07:00 +8°C° 0 mm 4 mps 750 mmHg 85%
    08:00 +8°C° 0 mm 5 mps 750 mmHg 84%
    09:00 +9°C° 0 mm 5 mps 750 mmHg 83%
    10:00 +9°C° 0 mm 5 mps 750 mmHg 76%
    11:00 +10°C° 0 mm 5 mps 750 mmHg 69%
    12:00 +11°C° 0 mm 6 mps 749 mmHg 63%
    13:00 +12°C° 0 mm 5 mps 749 mmHg 60%
    14:00 +12°C° 0 mm 5 mps 749 mmHg 57%
    15:00 +12°C° 0 mm 5 mps 749 mmHg 54%
    16:00 +11°C° 0 mm 4 mps 749 mmHg 59%
    17:00 +10°C° 0 mm 4 mps 749 mmHg 63%
    18:00 +8°C° 0 mm 4 mps 749 mmHg 68%
    19:00 +8°C° 0 mm 4 mps 749 mmHg 70%
    20:00 +8°C° 0 mm 4 mps 749 mmHg 71%
    21:00 +8°C° 0 mm 4 mps 748 mmHg 73%
    22:00 +8°C° 0 mm 5 mps 748 mmHg 73%
    23:00 +9°C° 0 mm 5 mps 748 mmHg 73%

    Tomorrow, 25 October, Thursday

    Time Temperature Precipitation Wind Pressure Humidity
    00:00 +9°C° 0 mm 6 mps 748 mmHg 73%
    01:00 +9°C° 0.1 mm 6 mps 747 mmHg 73%
    02:00 +9°C° 0.1 mm 6 mps 747 mmHg 73%
    03:00 +10°C° 0.1 mm 7 mps 746 mmHg 73%
    04:00 +10°C° 0.3 mm 7 mps 746 mmHg 73%
    05:00 +11°C° 0.3 mm 8 mps 745 mmHg 74%
    06:00 +11°C° 0.3 mm 8 mps 745 mmHg 74%
    07:00 +11°C° 0.3 mm 8 mps 744 mmHg 70%
    08:00 +11°C° 0.3 mm 8 mps 744 mmHg 66%
    09:00 +12°C° 0.3 mm 8 mps 744 mmHg 62%
    10:00 +12°C° 0.1 mm 8 mps 743 mmHg 61%
    11:00 +14°C° 0.1 mm 7 mps 743 mmHg 60%
    12:00 +15°C° 0.1 mm 7 mps 743 mmHg 58%
    13:00 +15°C° 0 mm 7 mps 742 mmHg 58%
    14:00 +16°C° 0 mm 6 mps 742 mmHg 58%
    15:00 +17°C° 0 mm 5 mps 742 mmHg 58%
    16:00 +16°C° 0 mm 5 mps 741 mmHg 61%
    17:00 +17°C° 0 mm 4 mps 740 mmHg 63%
    18:00 +17°C° 0 mm 4 mps 740 mmHg 66%
    19:00 +15°C° 0.1 mm 4 mps 740 mmHg 68%
    20:00 +15°C° 0.1 mm 4 mps 739 mmHg 71%
    21:00 +14°C° 0.1 mm 4 mps 739 mmHg 74%
    22:00 +14°C° 0.2 mm 4 mps 739 mmHg 77%
    23:00 +13°C° 0.2 mm 4 mps 740 mmHg 81%

    Day after tomorrow, 26 October, Friday

    Time Temperature Precipitation Wind Pressure Humidity
    00:00 +12°C° 0.2 mm 4 mps 740 mmHg 84%
    01:00 +12°C° 0 mm 4 mps 741 mmHg 80%
    02:00 +10°C° 0 mm 5 mps 741 mmHg 76%
    03:00 +9°C° 0 mm 5 mps 742 mmHg 71%
    04:00 +9°C° 0.1 mm 5 mps 742 mmHg 69%
    05:00 +8°C° 0.1 mm 5 mps 743 mmHg 68%
    06:00 +8°C° 0.1 mm 5 mps 743 mmHg 66%
    07:00 +8°C° 0 mm 5 mps 744 mmHg 65%
    08:00 +8°C° 0 mm 6 mps 744 mmHg 64%
    09:00 +8°C° 0 mm 7 mps 745 mmHg 63%
    10:00 +8°C° 0 mm 7 mps 745 mmHg 60%
    11:00 +8°C° 0 mm 6 mps 746 mmHg 58%
    12:00 +9°C° 0 mm 6 mps 746 mmHg 56%
    13:00 +8°C° 0 mm 6 mps 746 mmHg 55%
    14:00 +8°C° 0 mm 6 mps 746 mmHg 54%
    15:00 +8°C° 0 mm 6 mps 747 mmHg 53%
    16:00 +7°C° 0 mm 5 mps 747 mmHg 56%
    17:00 +6°C° 0 mm 4 mps 748 mmHg 58%
    18:00 +5°C° 0 mm 3 mps 748 mmHg 61%
    19:00 +5°C° 0 mm 4 mps 749 mmHg 62%
    20:00 +5°C° 0 mm 4 mps 749 mmHg 64%
    21:00 +4°C° 0 mm 4 mps 750 mmHg 66%
    22:00 +4°C° 0 mm 4 mps 750 mmHg 69%
    23:00 +3°C° 0 mm 3 mps 750 mmHg 71%

    27 October, Saturday

    Time Temperature Precipitation Wind Pressure Humidity
    00:00 +2°C° 0 mm 3 mps 751 mmHg 74%
    01:00 +2°C° 0 mm 3 mps 751 mmHg 75%
    02:00 +2°C° 0 mm 3 mps 752 mmHg 77%
    03:00 +1°C° 0 mm 3 mps 752 mmHg 78%
    04:00 +1°C° 0 mm 3 mps 752 mmHg 79%
    05:00 +1°C° 0 mm 3 mps 753 mmHg 79%
    06:00 0°C° 0 mm 3 mps 753 mmHg 80%
    07:00 0°C° 0 mm 4 mps 753 mmHg 74%
    08:00 +2°C° 0 mm 5 mps 754 mmHg 68%
    09:00 +3°C° 0 mm 6 mps 754 mmHg 63%
    10:00 +4°C° 0 mm 6 mps 754 mmHg 60%
    11:00 +5°C° 0 mm 6 mps 755 mmHg 57%
    12:00 +7°C° 0 mm 6 mps 755 mmHg 54%
    13:00 +7°C° 0 mm 6 mps 755 mmHg 55%
    14:00 +7°C° 0 mm 6 mps 755 mmHg 57%
    15:00 +7°C° 0 mm 5 mps 756 mmHg 58%
    16:00 +6°C° 0 mm 5 mps 756 mmHg 62%
    17:00 +5°C° 0 mm 4 mps 756 mmHg 66%
    18:00 +4°C° 0 mm 4 mps 756 mmHg 69%
    19:00 +4°C° 0 mm 4 mps 756 mmHg 68%
    20:00 +5°C° 0 mm 5 mps 756 mmHg 68%
    21:00 +4°C° 0 mm 6 mps 755 mmHg 67%
    22:00 +4°C° 0 mm 7 mps 755 mmHg 66%
    23:00 +4°C° 0 mm 7 mps 754 mmHg 66%

    28 October, Sunday

    Time Temperature Precipitation Wind Pressure Humidity
    00:00 +5°C° 0 mm 8 mps 753 mmHg 65%
    01:00 +5°C° 1.2 mm 8 mps 753 mmHg 70%
    02:00 +5°C° 1.2 mm 9 mps 752 mmHg 75%
    03:00 +5°C° 1.2 mm 9 mps 752 mmHg 79%
    04:00 +5°C° 1.1 mm 9 mps 751 mmHg 81%
    05:00 +6°C° 1.1 mm 9 mps 751 mmHg 83%
    06:00 +7°C° 1.1 mm 9 mps 751 mmHg 84%
    07:00 +7°C° 0.3 mm 9 mps 751 mmHg 79%
    08:00 +8°C° 0.3 mm 9 mps 751 mmHg 73%
    09:00 +8°C° 0.3 mm 10 mps 751 mmHg 67%
    10:00 +8°C° 0 mm 10 mps 752 mmHg 62%
    11:00 +8°C° 0 mm 10 mps 752 mmHg 57%
    12:00 +8°C° 0 mm 10 mps 753 mmHg 51%
    13:00 +7°C° 0 mm 10 mps 754 mmHg 52%
    14:00 +7°C° 0 mm 9 mps 755 mmHg 52%
    15:00 +6°C° 0 mm 9 mps 755 mmHg 52%
    16:00 +5°C° 0 mm 8 mps 756 mmHg 56%
    17:00 +5°C° 0 mm 7 mps 757 mmHg 60%
    18:00 +4°C° 0 mm 7 mps 758 mmHg 63%
    19:00 +3°C° 0 mm 7 mps 758 mmHg 64%
    20:00 +3°C° 0 mm 7 mps 759 mmHg 65%
    21:00 +2°C° 0 mm 7 mps 760 mmHg 66%
    22:00 +2°C° 0 mm 7 mps 761 mmHg 68%
    23:00 +1°C° 0 mm 6 mps 761 mmHg 70%

    29 October, Monday

    Time Temperature Precipitation Wind Pressure Humidity
    00:00 +1°C° 0 mm 6 mps 762 mmHg 72%
    01:00 +1°C° 0 mm 5 mps 763 mmHg 73%
    02:00 0°C° 0 mm 5 mps 763 mmHg 75%
    03:00 0°C° 0 mm 4 mps 764 mmHg 77%
    04:00 -1°C° 0 mm 4 mps 765 mmHg 79%
    05:00 0°C° 0 mm 3 mps 765 mmHg 81%
    06:00 0°C° 0 mm 3 mps 766 mmHg 83%
    07:00 0°C° 0 mm 3 mps 766 mmHg 79%
    08:00 +1°C° 0 mm 3 mps 767 mmHg 75%
    09:00 +2°C° 0 mm 3 mps 767 mmHg 71%
    10:00 +3°C° 0 mm 3 mps 768 mmHg 66%
    11:00 +3°C° 0 mm 3 mps 768 mmHg 60%
    12:00 +4°C° 0 mm 3 mps 768 mmHg 55%
    13:00 +5°C° 0 mm 2 mps 768 mmHg 55%
    14:00 +5°C° 0 mm 2 mps 769 mmHg 56%
    15:00 +5°C° 0 mm 2 mps 769 mmHg 56%
    16:00 +4°C° 0 mm 2 mps 769 mmHg 59%
    17:00 +5°C° 0 mm 1 mps 769 mmHg 63%
    18:00 +3°C° 0 mm 0 mps 770 mmHg 66%
    19:00 +3°C° 0 mm 0 mps 770 mmHg 67%
    20:00 +3°C° 0 mm 0 mps 770 mmHg 68%
    21:00 +3°C° 0 mm 0 mps 770 mmHg 69%
    22:00 +4°C° 0 mm 1 mps 770 mmHg 68%
    23:00 +4°C° 0 mm 1 mps 770 mmHg 68%

    30 October, Tuesday

    Time Temperature Precipitation Wind Pressure Humidity
    00:00 +4°C° 0 mm 1 mps 770 mmHg 68%
    01:00 +3°C° 0.1 mm 2 mps 770 mmHg 69%
    02:00 +3°C° 0.1 mm 2 mps 770 mmHg 71%
    03:00 +3°C° 0.1 mm 2 mps 770 mmHg 73%
    04:00 +2°C° 0.4 mm 3 mps 770 mmHg 76%
    05:00 +2°C° 0.4 mm 3 mps 769 mmHg 79%
    06:00 +2°C° 0.4 mm 3 mps 769 mmHg 81%
    07:00 +2°C° 0.4 mm 3 mps 769 mmHg 83%
    08:00 +2°C° 0.4 mm 3 mps 769 mmHg 84%
    09:00 +1°C° 0.4 mm 4 mps 768 mmHg 85%
    10:00 +2°C° 0.2 mm 3 mps 768 mmHg 84%
    11:00 +3°C° 0.2 mm 3 mps 768 mmHg 82%
    12:00 +3°C° 0.2 mm 3 mps 768 mmHg 81%
    13:00 +3°C° 0.1 mm 3 mps 768 mmHg 81%
    14:00 +3°C° 0.1 mm 3 mps 768 mmHg 82%
    15:00 +3°C° 0.1 mm 3 mps 768 mmHg 83%
    16:00 +3°C° 0 mm 4 mps 768 mmHg 85%
    17:00 +1°C° 0 mm 4 mps 768 mmHg 87%
    18:00 +1°C° 0 mm 4 mps 768 mmHg 88%
    19:00 +1°C° 0.1 mm 4 mps 768 mmHg 88%
    20:00 +1°C° 0.1 mm 5 mps 768 mmHg 89%
    21:00 +1°C° 0.1 mm 5 mps 768 mmHg 89%
    22:00 +1°C° 0.2 mm 5 mps 769 mmHg 88%
    23:00 0°C° 0.2 mm 5 mps 769 mmHg 88%
    Show more